CZ-6A DEB, 54927

Orbit data source: Space-Track

CZ-6A DEB, 54927 is space debris in SSO originally from a launch on Fri, 11 Nov 2022 UTC launched from the Taiyaun Space Center, China (TSC). Debris objects in space refer to the collection of defunct objects orbiting the Earth. Examples of debris include non-operational satellites, rocket bodies, and fragments generated from explosions, collisions, or faulty payload assembly.

Loading next visibility...
Identifier
54927, 2022-151RQ
Orbit
SSO
Country
Flag of CNCN / PRC
Related business
Manufacturer
SAST
Mission
Spacecraft
Bus & Motor
Unknown
Mass
Unknown
Launch date (UTC)
2022-11-11 (4 years ago)
Launch vehicle
Unknown
Launch site
Taiyaun Space Center, China (TSC)
Object type
Payload
Rocket body
Debris
Shape & HBR
Unknown shape, 0.1 m
Radar Cross Section
Small (<0.1 m²)

Expand to show TLE details & history
Last TLE update: 2 days ago

TLE from 2 days ago
0 CZ-6A DEB
1 54927U 22151RQ  26235.19825495  .00012449  00000-0  15543-2 0  9999
2 54927  98.6360 314.1873 0061935  51.5855 309.0894 14.81166015200177
Epoch: 2026-08-23T04:45Z
TLE epoch observation values (Epoch: 2026-08-23T04:45:29.227Z)
Latitude
-0°
Longitude
-88.68223°
Altitude
601.452 km
Speed
7.574 km/s
True Right ascension
20h 56m 44s
True Declination
0° 00' 00"
Sunlit
Object was in full shadow at epoch
Visualization orbit readout
Latitude
Unknown
Longitude
Unknown
Altitude
Unknown
Speed
Unknown
Apparent Right ascension
Unknown
Apparent Declination
Unknown
Sunlit
N/A
Visualization observer readout
Local Sidereal Time
18:25:44
Azimuth
Unknown
Elevation
Unknown
Doppler factor
Unknown
Orbital elements
Apogee altitude
666.079 km
Perigee altitude
579.36 km
Semi-major axis
7,000.857 km
Eccentricity
0.00619
Inclination
98.636°
RAAN
314.1873°
Arg. of periapsis
51.5855°
True anomaly
308.53585°
Mean anomaly
309.0894°
Eccentric anomaly
308.81289°
Mean motion
3.70524 °/min
Orbital period
97.16 mins
BSTAR
0.0015543
Loading maneuver chart data...
Computing Atmospheric mass density...
Loading historical data...
Loading historical data...
Loading historical data...
Loading historical data...
Loading historical data...
Loading historical data...
Loading historical data...

Documentation

Showing up to 5 results
|